カタログに戻る

KUIPER-00513

運用中通信LEO
NORAD 69598·PAYLOAD·🇺🇸 United States

打ち上げ Jun 17, 2026 から Guiana Space Centre

Loading…

次のパス (今後24時間)

TLE

最新Source: CelesTrak SupGP

元期: Sep 14, 2026, 22:26 UTC

1 69598C 26140G   26257.93478009 -.00005703  00000+0 -74660-3 0  2571
2 69598  51.9005 338.8054 0000444 106.4773 280.9418 14.79934710    18

AllMySatでKUIPER-00513をリアルタイム追跡

Download on the App Store